Location: *
(55.6049°S, 142.1985°W)
Time: 15:04:12
(UTC+00:00)

H-2A R/B - Pass Details

Date: 12 May 2021
Orbit: 529 x 651 km, 98.3° (Epoch: 17 June)

Event Time Altitude Azimuth Distance (km) Brightness Sun altitude
Rises 16:27:44 0° 332° (NNW) 2,887 5.9 -6.6°
Reaches altitude 10° 16:30:36 10° 312° (NW) 1,967 4.9 -6.2°
Maximum altitude 16:33:27 17° 270° (W) 1,531 4.0 -5.8°
Drops below altitude 10° 16:36:16 10° 228° (SW) 1,934 4.5 -5.5°
Enters shadow 16:38:56 - 208° (SSW) 2,771 5.4 -5.1°
